DW3649 Athens GR current weather conditions

sailwx.info

Wind from 147 at 8 knots

Air temperature 11.7° C
Dewpoint 9.7° C

Last reported at 2019-Jan-23 08:00 UTC.
Time now 2019-Jan-23 09:03 UTC

Location: N 37°58' E 023°45'.
View on Google Maps.

See reports from other nearby stations

  
Tides and Currents Weather Stations Pressure Air Temp Water Temp Dewpoint Dewpoint Depression Visibility Wind Speed Wind Dir Waves Ship Positions
date/time (UTC)wind fromknots sea level pressurealtimeterstation pressurevisibilityair tempwater tempwave heightnotes
2019-Jan-23 08:00 147 8 11.7
2019-Jan-23 07:45 138 1 11.1
2019-Jan-23 07:30 136 10.6
2019-Jan-23 07:15 136 10.6
2019-Jan-23 07:00 136 10.6
2019-Jan-23 06:45 136 10.6
2019-Jan-23 06:32 136 10.0
2019-Jan-23 06:17
2019-Jan-23 06:02
2019-Jan-23 05:46
2019-Jan-23 05:31
2019-Jan-23 05:16
2019-Jan-23 05:01
2019-Jan-23 04:46
2019-Jan-23 04:31
2019-Jan-23 04:01 244 1 10.6
2019-Jan-23 03:46 244 10.6
2019-Jan-23 03:31 244 3 10.6
2019-Jan-23 03:15 215 5 11.1
2019-Jan-23 03:00 157 1 11.1
2019-Jan-23 02:46 157 4 11.7
2019-Jan-23 02:31 157 3 11.7
2019-Jan-23 02:15 157 1 12.2
2019-Jan-23 02:00 157 2 12.2
2019-Jan-23 01:46 155 1 11.7
2019-Jan-23 01:30 155 2 12.2
2019-Jan-23 01:15 155 1 12.8
2019-Jan-23 01:00 155 3 12.8
2019-Jan-23 00:45 153 5 12.8
2019-Jan-23 00:30 162 6 13.3
2019-Jan-23 00:18 155 6 12.8
2019-Jan-23 00:00 158 7 13.3
2019-Jan-22 23:45 153 5 13.3
2019-Jan-22 23:30 140 8 13.3
2019-Jan-22 23:15 150 8 13.3
2019-Jan-22 23:00 156 7 13.3
2019-Jan-22 22:45 152 6 13.3
2019-Jan-22 22:17 160 7 13.3
2019-Jan-22 22:02 139 8 13.3
2019-Jan-22 21:47 163 6 13.3
2019-Jan-22 21:32 150 8 13.3
2019-Jan-22 21:16 144 10 13.3
2019-Jan-22 21:01 161 10 13.3
2019-Jan-22 20:47 192 11 13.3
2019-Jan-22 20:32 167 10 13.3
2019-Jan-22 20:17 155 11 13.3
2019-Jan-22 20:01 156 13 13.3
2019-Jan-22 19:47 167 13 13.3
2019-Jan-22 19:32 143 13 13.3
2019-Jan-22 19:16 144 11 13.3
2019-Jan-22 19:02 130 11 13.3
2019-Jan-22 18:46 165 11 13.3
2019-Jan-22 18:16 150 11 12.8
2019-Jan-22 18:02 137 13 13.3
2019-Jan-22 17:45 155 13 13.3
2019-Jan-22 17:31 142 8 13.3
2019-Jan-22 17:16 150 10 13.3
2019-Jan-22 17:01 142 8 12.8
2019-Jan-22 16:46 123 9 12.8
2019-Jan-22 16:30 147 7 12.8
2019-Jan-22 16:15 142 9 13.3
2019-Jan-22 16:01 155 11 12.8
2019-Jan-22 15:46 139 10 13.3
2019-Jan-22 15:30 146 10 13.3
2019-Jan-22 15:16 178 9 13.3
2019-Jan-22 15:00 142 7 13.3
2019-Jan-22 14:45 142 7 13.3
2019-Jan-22 14:30 143 6 13.3
2019-Jan-22 14:15 144 6 13.3
2019-Jan-22 14:01 140 8 12.8
2019-Jan-22 13:45 161 10 12.8
2019-Jan-22 13:30 144 8 13.3
2019-Jan-22 13:15 141 10 13.3
2019-Jan-22 13:00 145 11 13.3
2019-Jan-22 12:45 142 11 13.3
2019-Jan-22 12:30 142 6 13.3
2019-Jan-22 12:15 161 11 13.9
2019-Jan-22 12:00 155 7 13.9
2019-Jan-22 11:45 123 8 13.9
2019-Jan-22 11:30 147 7 13.9
2019-Jan-22 11:15 178 8 13.9
2019-Jan-22 11:00 175 7 13.9
2019-Jan-22 10:45 186 8 13.3
2019-Jan-22 10:32 153 10 13.3
2019-Jan-22 10:17 194 9 13.3
2019-Jan-22 10:01 144 6 13.9
2019-Jan-22 09:46 214 7 13.9
2019-Jan-22 09:32 150 6 13.9
2019-Jan-22 09:16 143 7 13.3
2019-Jan-22 09:01 155 6 13.3
2019-Jan-22 08:47 192 6 12.8
2019-Jan-22 08:32 149 7 12.8
2019-Jan-22 08:16 143 5 12.8
2019-Jan-22 08:01 150 3 12.2
2019-Jan-22 07:46 147 1 11.7
2019-Jan-22 07:30 073 11.1
2019-Jan-22 07:15 073 10.6
2019-Jan-22 07:01 073 10.6
2019-Jan-22 06:46 073 10.0
2019-Jan-22 06:31 073 10.0
2019-Jan-22 06:16
2019-Jan-22 06:00
2019-Jan-22 05:45
2019-Jan-22 05:30
2019-Jan-22 05:16
2019-Jan-22 05:00
2019-Jan-22 04:47
2019-Jan-22 04:45
2019-Jan-22 04:31
2019-Jan-22 04:17 073 9.4
2019-Jan-22 04:01 073 0 10.0
2019-Jan-22 03:47 073 10.0
2019-Jan-22 03:31 073 10.0
2019-Jan-22 03:16 073 10.0
2019-Jan-22 03:01 073 10.0
2019-Jan-22 02:46 073 10.0
2019-Jan-22 02:31 073 10.0
2019-Jan-22 02:16 073 10.0
2019-Jan-22 02:01 073 10.0
2019-Jan-22 01:45 073 10.0
2019-Jan-22 01:31 073 10.0
2019-Jan-22 01:15 073 10.0
2019-Jan-22 01:00 073 10.0
2019-Jan-22 00:46 073 10.0
2019-Jan-22 00:31 073 10.0
2019-Jan-22 00:16 073 0 10.0
2019-Jan-22 00:00 073 0 10.0
2019-Jan-21 23:45 073 0 10.0
2019-Jan-21 23:31 073 10.0
2019-Jan-21 23:16 073 10.0
2019-Jan-21 23:00 073 10.0
2019-Jan-21 22:46 073 10.0
2019-Jan-21 22:30 073 10.0
2019-Jan-21 22:15 073 10.0
2019-Jan-21 22:00 073 10.0
2019-Jan-21 21:45 073 10.0
2019-Jan-21 21:30 073 10.6
2019-Jan-21 21:15 073 10.0
2019-Jan-21 21:00 073 10.6
2019-Jan-21 20:45 073 10.6
2019-Jan-21 20:30 073 0 10.6
2019-Jan-21 20:15 073 11.1
2019-Jan-21 20:00 073 11.1
2019-Jan-21 19:45 073 0 11.1
2019-Jan-21 19:30 073 0 11.1
2019-Jan-21 19:16 073 11.7
2019-Jan-21 19:00 073 11.7
2019-Jan-21 18:45 073 11.7
2019-Jan-21 18:30 073 11.7
2019-Jan-21 18:15 073 11.7
2019-Jan-21 18:00 073 11.7
2019-Jan-21 17:45 073 11.7
2019-Jan-21 17:30 073 11.7
2019-Jan-21 17:15 073 0 11.7
2019-Jan-21 17:00 073 0 12.2
2019-Jan-21 16:45 073 12.2
2019-Jan-21 16:30 073 12.2
2019-Jan-21 16:15 074 1 12.2
2019-Jan-21 16:00 073 1 12.8
2019-Jan-21 15:45 074 1 12.8
2019-Jan-21 15:30 073 2 12.8
2019-Jan-21 15:15 082 1 13.3
2019-Jan-21 15:00 192 0 13.3
2019-Jan-21 14:45 192 3 13.3
2019-Jan-21 14:30 190 4 13.3
2019-Jan-21 14:15 188 4 13.9
2019-Jan-21 14:00 179 3 13.9
2019-Jan-21 13:45 181 3 13.9
2019-Jan-21 13:30 181 3 13.9
2019-Jan-21 13:02 171 3 13.9
2019-Jan-21 12:46 172 1 13.9
2019-Jan-21 12:31 172 2 13.9
2019-Jan-21 12:16 172 3 13.9
2019-Jan-21 12:01 171 2 13.9
2019-Jan-21 11:47 171 2 13.3
2019-Jan-21 11:31 169 4 13.3
2019-Jan-21 11:17 168 3 13.3
2019-Jan-21 11:01 161 1 13.9
2019-Jan-21 10:46 161 0 13.3
2019-Jan-21 10:32 161 2 13.3
2019-Jan-21 10:16 164 2 13.3
2019-Jan-21 10:01 166 0 13.3
2019-Jan-21 09:46 166 2 13.3
2019-Jan-21 09:31 166 1 13.3
2019-Jan-21 09:16 166 12.8
2019-Jan-21 09:01 166 12.2